TimeCST,TemperatureF,Dew PointF,Humidity,Sea Level PressureIn,VisibilityMPH,Wind Direction,Wind SpeedMPH,Gust SpeedMPH,PrecipitationIn,Events,Conditions,WindDirDegrees,DateUTC
12:15 AM,39.0,30.0,70,30.08,10.0,WNW,9.2,-,N/A,,Clear,290,2012-11-07 06:15:00
12:35 AM,38.8,30.0,71,30.08,10.0,WNW,8.1,-,N/A,,Clear,300,2012-11-07 06:35:00
12:55 AM,37.8,29.8,73,30.09,10.0,WNW,9.2,-,N/A,,Clear,300,2012-11-07 06:55:00
1:15 AM,39.0,30.2,71,30.09,10.0,WNW,9.2,-,N/A,,Clear,300,2012-11-07 07:15:00
1:35 AM,38.3,30.2,73,30.09,10.0,WNW,9.2,-,N/A,,Clear,300,2012-11-07 07:35:00
1:55 AM,37.2,29.8,75,30.09,10.0,WNW,9.2,-,N/A,,Clear,300,2012-11-07 07:55:00
2:15 AM,36.1,29.5,77,30.09,10.0,WNW,5.8,-,N/A,,Clear,300,2012-11-07 08:15:00
2:55 AM,34.0,29.5,84,30.09,10.0,WNW,6.9,-,N/A,,Clear,300,2012-11-07 08:55:00
3:15 AM,34.5,29.5,82,30.09,10.0,WNW,4.6,-,N/A,,Clear,300,2012-11-07 09:15:00
3:35 AM,32.9,29.1,86,30.09,10.0,West,4.6,-,N/A,,Clear,280,2012-11-07 09:35:00
3:55 AM,33.1,29.7,87,30.10,10.0,Calm,Calm,-,N/A,,Clear,0,2012-11-07 09:55:00
4:15 AM,34.2,29.7,84,30.10,10.0,WNW,3.5,-,N/A,,Clear,290,2012-11-07 10:15:00
4:35 AM,32.7,29.1,87,30.11,10.0,WNW,6.9,-,N/A,,Clear,290,2012-11-07 10:35:00
4:55 AM,32.5,29.1,87,30.13,10.0,WNW,6.9,-,N/A,,Clear,290,2012-11-07 10:55:00
5:15 AM,32.5,29.3,88,30.13,10.0,West,8.1,-,N/A,,Clear,280,2012-11-07 11:15:00
5:35 AM,32.9,29.3,87,30.14,10.0,West,9.2,-,N/A,,Clear,280,2012-11-07 11:35:00
5:55 AM,32.0,29.1,89,30.14,10.0,West,6.9,-,N/A,,Clear,280,2012-11-07 11:55:00
6:15 AM,32.4,29.3,88,30.15,10.0,West,8.1,-,N/A,,Clear,280,2012-11-07 12:15:00
6:35 AM,32.0,28.8,88,30.15,10.0,WNW,6.9,-,N/A,,Clear,290,2012-11-07 12:35:00
6:55 AM,31.8,28.4,87,30.16,10.0,WNW,8.1,-,N/A,,Clear,290,2012-11-07 12:55:00
7:15 AM,32.0,29.1,89,30.16,10.0,WNW,5.8,-,N/A,,Clear,300,2012-11-07 13:15:00
7:35 AM,32.4,29.8,90,30.16,10.0,WNW,5.8,-,N/A,,Clear,300,2012-11-07 13:35:00
7:55 AM,32.9,30.2,90,30.17,10.0,WNW,5.8,-,N/A,,Clear,290,2012-11-07 13:55:00
8:15 AM,34.3,31.1,88,30.17,10.0,West,5.8,-,N/A,,Clear,280,2012-11-07 14:15:00
8:35 AM,36.1,32.0,85,30.18,10.0,WNW,4.6,-,N/A,,Clear,290,2012-11-07 14:35:00
8:55 AM,38.1,33.1,82,30.18,10.0,WNW,5.8,-,N/A,,Clear,300,2012-11-07 14:55:00
9:15 AM,39.9,34.0,79,30.18,10.0,WNW,5.8,-,N/A,,Clear,300,2012-11-07 15:15:00
9:35 AM,41.7,34.2,75,30.18,10.0,WNW,4.6,-,N/A,,Clear,300,2012-11-07 15:35:00
9:55 AM,42.3,34.0,72,30.19,10.0,Calm,Calm,-,N/A,,Clear,0,2012-11-07 15:55:00
10:15 AM,44.6,34.5,68,30.19,10.0,West,3.5,-,N/A,,Clear,280,2012-11-07 16:15:00
10:35 AM,45.5,32.7,61,30.18,10.0,NW,3.5,-,N/A,,Clear,310,2012-11-07 16:35:00
10:55 AM,46.4,32.2,58,30.18,10.0,Calm,Calm,-,N/A,,Clear,0,2012-11-07 16:55:00
11:15 AM,46.8,32.0,57,30.18,10.0,Calm,Calm,-,N/A,,Clear,0,2012-11-07 17:15:00
11:35 AM,48.2,31.8,53,30.16,10.0,Calm,Calm,-,N/A,,Clear,0,2012-11-07 17:35:00
11:55 AM,48.6,31.5,52,30.16,10.0,Calm,Calm,-,N/A,,Clear,0,2012-11-07 17:55:00
12:15 PM,49.1,31.8,51,30.14,10.0,Calm,Calm,-,N/A,,Clear,0,2012-11-07 18:15:00
12:35 PM,49.8,31.8,50,30.13,10.0,Calm,Calm,-,N/A,,Clear,0,2012-11-07 18:35:00
12:55 PM,51.3,32.2,48,30.11,10.0,East,4.6,-,N/A,,Clear,90,2012-11-07 18:55:00
1:15 PM,50.9,31.8,48,30.11,10.0,Calm,Calm,-,N/A,,Clear,0,2012-11-07 19:15:00
1:35 PM,51.4,32.0,47,30.10,10.0,Calm,Calm,-,N/A,,Clear,0,2012-11-07 19:35:00
1:55 PM,52.2,31.3,45,30.09,10.0,Calm,Calm,-,N/A,,Clear,0,2012-11-07 19:55:00
2:15 PM,52.7,31.8,45,30.08,10.0,SE,3.5,-,N/A,,Clear,140,2012-11-07 20:15:00
2:35 PM,52.5,31.6,45,30.08,10.0,Calm,Calm,-,N/A,,Clear,0,2012-11-07 20:35:00
2:55 PM,53.6,31.5,43,30.07,10.0,SSE,4.6,-,N/A,,Clear,150,2012-11-07 20:55:00
3:15 PM,53.4,32.0,44,30.07,10.0,SE,3.5,-,N/A,,Clear,140,2012-11-07 21:15:00
3:35 PM,52.9,31.8,45,30.07,10.0,SE,3.5,-,N/A,,Clear,130,2012-11-07 21:35:00
3:55 PM,53.8,31.6,43,30.06,10.0,SSE,6.9,-,N/A,,Clear,150,2012-11-07 21:55:00
4:15 PM,53.1,31.8,44,30.06,10.0,SSE,5.8,-,N/A,,Clear,150,2012-11-07 22:15:00
4:35 PM,52.3,31.3,45,30.06,10.0,SE,4.6,-,N/A,,Clear,140,2012-11-07 22:35:00
4:55 PM,50.9,31.5,47,30.06,10.0,SE,3.5,-,N/A,,Clear,140,2012-11-07 22:55:00
5:15 PM,49.1,30.7,49,30.06,10.0,SE,3.5,-,N/A,,Clear,130,2012-11-07 23:15:00
5:35 PM,48.2,31.1,52,30.06,10.0,SE,3.5,-,N/A,,Clear,140,2012-11-07 23:35:00
5:55 PM,47.3,31.5,54,30.06,10.0,SE,3.5,-,N/A,,Clear,140,2012-11-07 23:55:00
6:15 PM,46.6,31.3,55,30.06,10.0,SE,4.6,-,N/A,,Clear,130,2012-11-08 00:15:00
6:35 PM,45.9,32.0,58,30.06,10.0,SE,4.6,-,N/A,,Clear,130,2012-11-08 00:35:00
6:55 PM,44.6,32.2,62,30.06,10.0,SE,4.6,-,N/A,,Clear,140,2012-11-08 00:55:00
7:15 PM,43.5,31.8,63,30.06,10.0,SE,4.6,-,N/A,,Clear,140,2012-11-08 01:15:00
7:35 PM,43.3,31.1,62,30.06,10.0,SE,5.8,-,N/A,,Clear,140,2012-11-08 01:35:00
7:55 PM,42.8,30.9,63,30.06,10.0,SE,5.8,-,N/A,,Clear,140,2012-11-08 01:55:00
8:15 PM,42.3,30.9,64,30.06,10.0,SE,5.8,-,N/A,,Clear,140,2012-11-08 02:15:00
8:35 PM,41.9,30.9,65,30.06,10.0,SE,6.9,-,N/A,,Clear,140,2012-11-08 02:35:00
8:55 PM,41.4,30.9,66,30.06,10.0,SE,6.9,-,N/A,,Clear,140,2012-11-08 02:55:00
9:15 PM,41.2,30.9,67,30.06,10.0,SE,6.9,-,N/A,,Clear,140,2012-11-08 03:15:00
9:35 PM,40.5,30.6,68,30.06,10.0,SSE,5.8,-,N/A,,Clear,150,2012-11-08 03:35:00
9:55 PM,41.4,30.7,66,30.06,10.0,SSE,8.1,-,N/A,,Clear,150,2012-11-08 03:55:00
10:15 PM,41.9,30.9,65,30.06,10.0,SSE,9.2,-,N/A,,Clear,150,2012-11-08 04:15:00
10:35 PM,41.4,31.1,67,30.06,10.0,SSE,9.2,-,N/A,,Clear,150,2012-11-08 04:35:00
10:55 PM,41.9,31.1,66,30.05,10.0,SSE,10.4,-,N/A,,Clear,150,2012-11-08 04:55:00
11:15 PM,41.7,31.1,66,30.05,10.0,SSE,10.4,-,N/A,,Clear,150,2012-11-08 05:15:00
11:35 PM,41.0,31.6,69,30.04,10.0,SE,10.4,-,N/A,,Clear,140,2012-11-08 05:35:00
11:55 PM,41.4,31.6,68,30.03,10.0,SE,11.5,-,N/A,,Clear,140,2012-11-08 05:55:00